Weather Roundup
Issued by NWS Chicago, IL

Home | Current Version | Previous Version | Graphics & Text | Print | Product List | Glossary On
Versions: 1 2 3 4 5 6 7 8 9 10 11 12 13 14 15 16 17 18 19 20 21 22 23 24 25 26 27 28 29 30 31 32 33 34 35 36 37 38 39 40 41 42 43 44 45 46 47 48 49 50
000
NZUS59 KLOT 171800
HRRLOT

CHICAGO AREA WEATHER ROUNDUP
NATIONAL WEATHER SERVICE CHICAGO/ROMEOVILLE IL
100 PM CDT WED SEP 17 2014

NOTE: "FAIR" INDICATES FEW OR NO CLOUDS BELOW 12,000 FEET WITH NO
SIGNIFICANT WEATHER AND/OR OBSTRUCTIONS TO VISIBILITY.

* THESE STATIONS ARE NOT UNDER NWS QUALITY CONTROL. THEY ALSO MAY NOT
  REPORT WEATHER SUCH AS PRECIPITATION OR FOG.

ILZ005-006-012>014-019>023-171900-
NORTHEAST ILLINOIS

CITY           SKY/WX    TMP DP  RH WIND       PRES   REMARKS
OHARE          PTSUNNY   68  44  42 NW5       30.02F
6HR MIN TEMP:  48; 6HR MAX TEMP:  68;

MIDWAY         PTSUNNY   67  47  48 SW9       30.02F
6HR MIN TEMP:  50; 6HR MAX TEMP:  69;

AURORA         PTSUNNY   68  46  45 SE7       30.03F
6HR MIN TEMP:  40; 6HR MAX TEMP:  69;

WAUKEGAN       SUNNY     65  44  46 W6        30.01F
DUPAGE AIRPORT CLOUDY    67  44  43 CALM      30.02F
6HR MIN TEMP:  43; 6HR MAX TEMP:  68;

WHEELING       PTSUNNY   67  44  43 S5        30.03F
6HR MIN TEMP:  47; 6HR MAX TEMP:  68;

NORTHERLY IS     N/A     65  48  54 E8          N/A
$$

WIZ051-052-058>065-066-070>072-171900-
SOUTHEAST WISCONSIN

CITY           SKY/WX    TMP DP  RH WIND       PRES   REMARKS
MILWAUKEE      MOSUNNY   67  44  43 SW8       30.00F
6HR MIN TEMP:  48; 6HR MAX TEMP:  67;

KENOSHA*       MOSUNNY   65  46  50 VRB7      30.01F
RACINE*        SUNNY     67  44  43 SW10      30.02F
WAUKESHA       SUNNY     64  45  48 CALM      30.01F
$$

INZ001>003-010>013-019-020-171900-
NORTHWEST INDIANA

CITY           SKY/WX    TMP DP  RH WIND       PRES   REMARKS
GARY*          MOSUNNY   68  45  42 W8        30.03F
MICHIGAN CITY* NOT AVBL
RENSSELAER*    NOT AVBL
VALPARAISO     SUNNY     66  44  45 VRB5      30.03F
$$

LMZ740>746-171900-
SOUTHERN LAKE MICHIGAN

STATION/POSITION TIME  SKY/WX   TEMP WIND        PRES    VSBY
                                AIR  DIR/SP/G
                 (UTC)          (F)  (DEG/KT/KT) (MB)    (MI)
HARRISON CRIB    1700            62  130/  8/  9   N/A
BURNHAM HARBOR   1800            65  100/  5/  7   N/A
CALUMET HARBOR   1700            65  110/  3/  6 1015.4F
BURNS HARBOR     NOT AVBL
MICHIGAN CITY    1700            63  270/  8/  9   N/A
$$

ABBREVIATIONS USED IN REMARKS
   TC - TEMPERATURE IN CELSIUS
  WCI - WIND CHILL INDEX
   HX - HEAT INDEX
  VSB - VISIBILITY
$$



USA.gov is the U.S. government's official web portal to all federal, state and local government web resources and services.